SVA1167 OEDF-OERK

Flight info

Callsign SVA1167
Flight time 0h 41m
Altitude 30000
Route EMUSA Q212 REXOV
Aircraft A320/M-SDE3FGHIRWY/LB1

Departure

Time 2026-04-30 09:16
Airport King Fahd International Airport (OEDF)

Arrival

Time 2026-04-30 09:58
Airport King Khalid International Airport (OERK)
Time Latitude Longitude Altitude Speed Heading
2026-04-30 09:00 26.46734 49.79529 85 ft 0 kts 75°
2026-04-30 09:03 26.46734 49.79530 85 ft 0 kts 75°
2026-04-30 09:05 26.46734 49.79529 85 ft 0 kts 75°
2026-04-30 09:08 26.46731 49.79515 89 ft 4 kts 78°
2026-04-30 09:08 26.46728 49.79486 85 ft 4 kts 94°
2026-04-30 09:08 26.46734 49.79460 86 ft 4 kts 138°
2026-04-30 09:08 26.46743 49.79453 89 ft 0 kts 166°
2026-04-30 09:10 26.46741 49.79453 85 ft 1 kts 167°
2026-04-30 09:10 26.46712 49.79461 89 ft 7 kts 166°
2026-04-30 09:10 26.46643 49.79480 87 ft 13 kts 168°
2026-04-30 09:11 26.46536 49.79492 86 ft 17 kts 174°
2026-04-30 09:11 26.46465 49.79452 89 ft 11 kts 245°
2026-04-30 09:11 26.46443 49.79354 86 ft 15 kts 255°
2026-04-30 09:11 26.46398 49.79242 85 ft 17 kts 216°
2026-04-30 09:12 26.46285 49.79257 88 ft 16 kts 165°
2026-04-30 09:12 26.46181 49.79289 85 ft 15 kts 164°
2026-04-30 09:12 26.46087 49.79318 86 ft 13 kts 164°
2026-04-30 09:12 26.46002 49.79345 86 ft 12 kts 164°
2026-04-30 09:13 26.45923 49.79369 86 ft 11 kts 165°
2026-04-30 09:13 26.45852 49.79392 87 ft 10 kts 164°
2026-04-30 09:13 26.45788 49.79411 86 ft 9 kts 165°
2026-04-30 09:13 26.45726 49.79430 88 ft 9 kts 164°
2026-04-30 09:14 26.45664 49.79450 87 ft 10 kts 168°
2026-04-30 09:14 26.45610 49.79414 88 ft 10 kts 253°
2026-04-30 09:14 26.45595 49.79345 85 ft 9 kts 255°
2026-04-30 09:14 26.45580 49.79286 86 ft 7 kts 254°
2026-04-30 09:15 26.45568 49.79239 86 ft 6 kts 254°
2026-04-30 09:15 26.45565 49.79199 86 ft 7 kts 277°
2026-04-30 09:15 26.45621 49.79139 87 ft 16 kts 342°
2026-04-30 09:15 26.45921 49.79046 90 ft 78 kts 344°
2026-04-30 09:16 26.46636 49.78825 88 ft 133 kts 345°
2026-04-30 09:16 26.47642 49.78511 367 ft 155 kts 346°
2026-04-30 09:16 26.48692 49.78188 951 ft 157 kts 345°
2026-04-30 09:16 26.49743 49.77863 1640 ft 157 kts 345°
2026-04-30 09:17 26.50829 49.77528 2109 ft 171 kts 345°
2026-04-30 09:17 26.52050 49.77152 2439 ft 193 kts 346°
2026-04-30 09:17 26.53406 49.76735 2809 ft 213 kts 346°
2026-04-30 09:17 26.54883 49.76279 3238 ft 234 kts 345°
2026-04-30 09:18 26.56504 49.75772 3830 ft 247 kts 343°
2026-04-30 09:18 26.57993 49.74784 4554 ft 259 kts 312°
2026-04-30 09:18 26.58723 49.72929 5390 ft 269 kts 277°
2026-04-30 09:18 26.58528 49.70829 6293 ft 272 kts 262°
2026-04-30 09:19 26.58270 49.68750 7209 ft 270 kts 274°
2026-04-30 09:19 26.58620 49.66692 7777 ft 270 kts 283°
2026-04-30 09:19 26.59029 49.64651 7953 ft 269 kts 282°
2026-04-30 09:19 26.59414 49.62613 8000 ft 267 kts 281°
2026-04-30 09:20 26.59789 49.60582 8002 ft 267 kts 281°
2026-04-30 09:20 26.60165 49.58548 8001 ft 268 kts 281°
2026-04-30 09:20 26.60545 49.56509 8000 ft 268 kts 281°
2026-04-30 09:20 26.60921 49.54476 8005 ft 267 kts 279°
2026-04-30 09:21 26.60951 49.52411 8010 ft 268 kts 262°
2026-04-30 09:21 26.60376 49.50417 8006 ft 273 kts 244°
2026-04-30 09:21 26.59340 49.48641 8007 ft 273 kts 237°
2026-04-30 09:21 26.58256 49.46890 8003 ft 274 kts 238°
2026-04-30 09:22 26.57177 49.45142 8001 ft 273 kts 238°
2026-04-30 09:22 26.56111 49.43410 8006 ft 274 kts 238°
2026-04-30 09:22 26.55034 49.41660 8010 ft 273 kts 238°
2026-04-30 09:22 26.53958 49.39907 8006 ft 274 kts 237°
2026-04-30 09:23 26.52876 49.38147 8006 ft 274 kts 238°
2026-04-30 09:23 26.51793 49.36391 8009 ft 274 kts 238°
2026-04-30 09:23 26.50712 49.34641 8008 ft 273 kts 237°
2026-04-30 09:23 26.49635 49.32898 8015 ft 273 kts 238°
2026-04-30 09:24 26.48568 49.31137 8079 ft 276 kts 240°
2026-04-30 09:24 26.47574 49.29293 8722 ft 279 kts 241°
2026-04-30 09:24 26.46626 49.27433 8881 ft 277 kts 242°
2026-04-30 09:24 26.45691 49.25556 8925 ft 275 kts 242°
2026-04-30 09:25 26.44764 49.23694 8925 ft 274 kts 242°
2026-04-30 09:25 26.43833 49.21833 8926 ft 275 kts 242°
2026-04-30 09:25 26.42896 49.19974 8925 ft 274 kts 242°
2026-04-30 09:25 26.41953 49.18121 8926 ft 274 kts 241°
2026-04-30 09:26 26.41018 49.16292 9020 ft 277 kts 242°
2026-04-30 09:26 26.40058 49.14412 9713 ft 280 kts 241°
2026-04-30 09:26 26.39100 49.12541 9884 ft 276 kts 241°
2026-04-30 09:26 26.38110 49.10602 9932 ft 303 kts 241°
2026-04-30 09:27 26.37050 49.08524 9934 ft 316 kts 241°
2026-04-30 09:27 26.35951 49.06376 9932 ft 321 kts 241°
2026-04-30 09:27 26.34844 49.04219 9931 ft 322 kts 240°
2026-04-30 09:27 26.33734 49.02061 9931 ft 322 kts 241°
2026-04-30 09:28 26.32610 48.99872 9934 ft 329 kts 241°
2026-04-30 09:28 26.31470 48.97648 10114 ft 337 kts 241°
2026-04-30 09:28 26.30284 48.95332 10536 ft 348 kts 240°
2026-04-30 09:28 26.29077 48.92974 11220 ft 351 kts 241°
2026-04-30 09:29 26.27862 48.90601 11952 ft 353 kts 240°
2026-04-30 09:29 26.26643 48.88221 12694 ft 354 kts 240°
2026-04-30 09:29 26.25431 48.85865 13439 ft 356 kts 240°
2026-04-30 09:29 26.24200 48.83473 14144 ft 357 kts 240°
2026-04-30 09:30 26.22961 48.81066 14769 ft 359 kts 241°
2026-04-30 09:30 26.21711 48.78640 15370 ft 362 kts 241°
2026-04-30 09:30 26.20453 48.76202 15818 ft 365 kts 241°
2026-04-30 09:30 26.19206 48.73737 15927 ft 365 kts 244°
2026-04-30 09:31 26.18308 48.71097 15965 ft 365 kts 255°
2026-04-30 09:31 26.17888 48.68282 16515 ft 369 kts 261°
2026-04-30 09:31 26.17542 48.65444 17135 ft 371 kts 261°
2026-04-30 09:31 26.17174 48.62589 17694 ft 374 kts 261°
2026-04-30 09:32 26.16796 48.59733 18233 ft 378 kts 261°
2026-04-30 09:32 26.16410 48.56827 18716 ft 380 kts 261°
2026-04-30 09:32 26.16025 48.53900 19197 ft 382 kts 261°
2026-04-30 09:32 26.15643 48.50962 19663 ft 384 kts 261°
2026-04-30 09:33 26.15264 48.48010 20131 ft 386 kts 261°
2026-04-30 09:33 26.14885 48.45042 20589 ft 388 kts 261°
2026-04-30 09:33 26.14503 48.42053 21029 ft 391 kts 261°
2026-04-30 09:33 26.14117 48.39052 21469 ft 393 kts 261°
2026-04-30 09:34 26.13727 48.36037 21896 ft 395 kts 261°
2026-04-30 09:34 26.13333 48.33007 22318 ft 397 kts 260°
2026-04-30 09:34 26.12934 48.29958 22722 ft 399 kts 260°
2026-04-30 09:34 26.12533 48.26898 23126 ft 401 kts 260°
2026-04-30 09:35 26.12129 48.23822 23517 ft 403 kts 260°
2026-04-30 09:35 26.11679 48.20740 23831 ft 404 kts 256°
2026-04-30 09:35 26.10812 48.17768 24142 ft 405 kts 246°
2026-04-30 09:35 26.09478 48.15048 24465 ft 407 kts 237°
2026-04-30 09:36 26.07731 48.12559 24792 ft 409 kts 232°
2026-04-30 09:36 26.05913 48.10115 25114 ft 410 kts 232°
2026-04-30 09:36 26.04090 48.07670 25431 ft 411 kts 232°
2026-04-30 09:36 26.02262 48.05217 25743 ft 411 kts 232°
2026-04-30 09:37 26.00434 48.02759 26039 ft 412 kts 232°
2026-04-30 09:37 25.98611 48.00301 26327 ft 413 kts 232°
2026-04-30 09:37 25.96779 47.97830 26588 ft 414 kts 233°
2026-04-30 09:37 25.94945 47.95362 26852 ft 415 kts 232°
2026-04-30 09:38 25.93105 47.92887 27108 ft 415 kts 232°
2026-04-30 09:38 25.91263 47.90414 27339 ft 416 kts 232°
2026-04-30 09:38 25.89415 47.87933 27569 ft 416 kts 232°
2026-04-30 09:38 25.87570 47.85457 27877 ft 414 kts 232°
2026-04-30 09:39 25.85734 47.83001 28212 ft 412 kts 232°
2026-04-30 09:39 25.83930 47.80588 28540 ft 410 kts 232°
2026-04-30 09:39 25.82110 47.78155 28872 ft 409 kts 233°
2026-04-30 09:39 25.80297 47.75731 29157 ft 408 kts 233°
2026-04-30 09:40 25.78490 47.73309 29442 ft 407 kts 233°
2026-04-30 09:40 25.76685 47.70893 29755 ft 405 kts 233°
2026-04-30 09:40 25.74888 47.68493 29962 ft 404 kts 233°
2026-04-30 09:40 25.73088 47.66092 29998 ft 405 kts 233°
2026-04-30 09:41 25.69490 47.61290 29997 ft 405 kts 233°
2026-04-30 09:41 25.65898 47.56484 29997 ft 405 kts 233°
2026-04-30 09:42 25.62291 47.51668 30003 ft 405 kts 233°
2026-04-30 09:42 25.58727 47.46910 29507 ft 398 kts 233°
2026-04-30 09:43 25.56955 47.44556 27779 ft 399 kts 232°
2026-04-30 09:43 25.55164 47.42182 26016 ft 404 kts 232°
2026-04-30 09:43 25.53349 47.39779 24333 ft 409 kts 232°
2026-04-30 09:43 25.51514 47.37346 22786 ft 412 kts 231°
2026-04-30 09:44 25.49698 47.34934 22145 ft 404 kts 231°
2026-04-30 09:44 25.47893 47.32537 21497 ft 404 kts 231°
2026-04-30 09:44 25.46102 47.30159 20740 ft 401 kts 231°
2026-04-30 09:44 25.44314 47.27788 19996 ft 401 kts 231°
2026-04-30 09:45 25.42532 47.25423 19262 ft 399 kts 231°
2026-04-30 09:45 25.40749 47.23061 18529 ft 398 kts 231°
2026-04-30 09:45 25.38974 47.20716 17764 ft 397 kts 231°
2026-04-30 09:45 25.37203 47.18376 17063 ft 394 kts 231°
2026-04-30 09:46 25.35453 47.16066 16385 ft 391 kts 231°
2026-04-30 09:46 25.33733 47.13797 15739 ft 388 kts 231°
2026-04-30 09:46 25.32000 47.11513 15097 ft 386 kts 230°
2026-04-30 09:46 25.30279 47.09242 14468 ft 384 kts 230°
2026-04-30 09:47 25.28567 47.06983 13819 ft 382 kts 230°
2026-04-30 09:47 25.26863 47.04736 13136 ft 380 kts 230°
2026-04-30 09:47 25.25173 47.02510 12485 ft 376 kts 230°
2026-04-30 09:47 25.23500 47.00307 11860 ft 372 kts 230°
2026-04-30 09:48 25.21843 46.98125 11340 ft 366 kts 230°
2026-04-30 09:48 25.20264 46.96048 11223 ft 349 kts 230°
2026-04-30 09:48 25.18737 46.94042 11101 ft 333 kts 230°
2026-04-30 09:48 25.17279 46.92125 10977 ft 319 kts 230°
2026-04-30 09:49 25.15881 46.90291 10862 ft 305 kts 230°
2026-04-30 09:49 25.14553 46.88557 10588 ft 290 kts 228°
2026-04-30 09:49 25.13009 46.87172 10312 ft 285 kts 208°
2026-04-30 09:49 25.11153 46.86482 10080 ft 282 kts 189°
2026-04-30 09:50 25.09830 46.86451 9937 ft 283 kts 174°
2026-04-30 09:50 25.07956 46.87056 9820 ft 288 kts 156°
2026-04-30 09:50 25.06147 46.87999 9682 ft 286 kts 159°
2026-04-30 09:50 25.04267 46.88772 9558 ft 283 kts 165°
2026-04-30 09:51 25.02390 46.89332 9151 ft 286 kts 170°
2026-04-30 09:51 25.00438 46.89684 8815 ft 281 kts 175°
2026-04-30 09:51 24.98499 46.89852 8446 ft 278 kts 179°
2026-04-30 09:51 24.96569 46.89826 8065 ft 276 kts 184°
2026-04-30 09:52 24.94655 46.89594 7592 ft 277 kts 189°
2026-04-30 09:52 24.92777 46.89154 7222 ft 275 kts 194°
2026-04-30 09:52 24.90964 46.88531 6892 ft 272 kts 199°
2026-04-30 09:52 24.89215 46.87733 6506 ft 271 kts 204°
2026-04-30 09:53 24.87531 46.86765 5937 ft 276 kts 208°
2026-04-30 09:53 24.85917 46.85614 5217 ft 277 kts 214°
2026-04-30 09:53 24.84422 46.84307 4573 ft 276 kts 220°
2026-04-30 09:53 24.83130 46.82842 4321 ft 256 kts 238°
2026-04-30 09:54 24.82720 46.81058 4221 ft 235 kts 279°
2026-04-30 09:54 24.83375 46.79535 4157 ft 217 kts 318°
2026-04-30 09:54 24.84504 46.78561 4141 ft 196 kts 333°
2026-04-30 09:54 24.85632 46.77816 3945 ft 183 kts 333°
2026-04-30 09:55 24.86700 46.77140 3735 ft 171 kts 334°
2026-04-30 09:55 24.87696 46.76512 3549 ft 157 kts 335°
2026-04-30 09:55 24.88627 46.75924 3362 ft 151 kts 337°
2026-04-30 09:55 24.89532 46.75354 3164 ft 149 kts 333°
2026-04-30 09:56 24.90430 46.74787 2968 ft 149 kts 336°
2026-04-30 09:56 24.91337 46.74215 2788 ft 150 kts 339°
2026-04-30 09:56 24.92232 46.73650 2577 ft 149 kts 337°
2026-04-30 09:56 24.93127 46.73084 2362 ft 148 kts 337°
2026-04-30 09:57 24.94016 46.72522 2162 ft 147 kts 333°
2026-04-30 09:57 24.94899 46.71961 2037 ft 140 kts 334°
2026-04-30 09:57 24.95597 46.71524 2031 ft 92 kts 329°
2026-04-30 09:57 24.96050 46.71237 2034 ft 61 kts 330°
2026-04-30 09:58 24.96359 46.71042 2035 ft 43 kts 328°
2026-04-30 09:58 24.96502 46.70883 2030 ft 27 kts 303°
2026-04-30 09:58 24.96531 46.70742 2035 ft 15 kts 267°
2026-04-30 09:58 24.96499 46.70651 2034 ft 12 kts 240°
2026-04-30 09:59 24.96430 46.70519 2035 ft 9 kts 240°
2026-04-30 09:59 24.96378 46.70420 2032 ft 6 kts 240°
2026-04-30 10:00 24.96341 46.70350 2032 ft 7 kts 239°
2026-04-30 10:00 24.96320 46.70301 2034 ft 6 kts 264°
2026-04-30 10:01 24.96348 46.70240 2038 ft 3 kts 297°
2026-04-30 10:01 24.96358 46.70222 2029 ft 2 kts 299°
2026-04-30 10:01 24.96364 46.70210 2032 ft 1 kts 299°
2026-04-30 10:02 24.96369 46.70200 2029 ft 0 kts 299°